Live-Position
3D-Globus wird geladen...
Über Starlink 5286
Group: 3 satellites
Beschreibung wird geladen...
Nächste Überflüge
Passes for default location (London). Set your location on the main map for personalized predictions.
Höhenverlauf
Loading altitude history...
No altitude history available
Zweizeiliger Elementsatz
1 55294U 23010AB 26104.57159107 -.00000507 00000-0 -34675-4 0 9992
2 55294 69.9978 313.8633 0003156 266.9900 93.0898 14.98335844178157
Epoch: 14. Apr. 2026 •
Age: 8 hours
Aktueller Status
Höhe 594.9 km
Geschwindigkeit 7.56 km/s
Subsatellitenpunkt -68.10°S,
34.93°E
Startdatum 19. Jan. 2023
Alter 3.2 years
Typ internet
Startgruppe
Falcon 9 •
Group 2-4 •
46 satellites
Starlink 5277
55269
Starlink 5306 55271
Starlink 5310 55272
Starlink 5291 55273
Starlink 5236 55274
Starlink 5260 55275
Starlink 5261 55276
Starlink 5299 55277
Starlink 5289 55278
Starlink 5331 55280
Starlink 5298 55281
Starlink 5330 55282
Starlink 5317 55283
Starlink 5337 55284
Starlink 5332 55285
Starlink 5338 55286
Starlink 5341 55287
Starlink 5311 55288
Starlink 5320 55289
Starlink 5266 55290
...and 25 more
Technische Details
Klassifizierung Payload
Masse 305.00 kg
Trockenmasse 290.00 kg
Gesamtmasse 305.00 kg
Länge 0.20 m
Durchmesser 2.80 m
Spannweite 9.00 m
Form Box + pan
Hersteller SPXS
Bus-Typ Starlink
Phasenstatus In Orbit
Besitzer/Staat SPXS/US
Most Searched
Loading...